Location: Newark
(25.6108°S, 54.5803°W)
Time: 15:06:40
(UTC+00:00)

Courier 1B - Pass Details

Date: 31 October 2020
Orbit: 962 x 1209 km, 28.3° (Epoch: 30 November)

Event Time Altitude Azimuth Distance (km) Brightness Sun altitude
Rises 07:54:08 0° 264° (W) 4,118 - -12.7°
Reaches altitude 10° 07:57:29 10° 275° (W) 3,142 - -12.0°
Exits shadow 07:58:36 14° 280° (W) 2,852 9.3 -11.8°
Maximum altitude 08:03:52 28° 330° (NNW) 2,063 8.8 -10.7°
Drops below altitude 10° 08:10:05 10° 25° (NNE) 3,033 10.1 -9.4°
Sets 08:13:16 0° 36° (NE) 3,952 10.9 -8.7°
